Location: *
(51.2167°N, 10.0667°E)
Time: 08:36:14
(UTC+00:00)

Feng Yun 1-1 Rocket - Pass Details

Date: 12 December 2019
Orbit: 830 x 933 km, 99.2° (Epoch: 21 January)

Event Time Altitude Azimuth Distance (km) Brightness Sun altitude
Rises 16:32:26 0° 163° (SSE) 3,365 7.4 -11.7°
Reaches altitude 10° 16:34:46 10° 163° (SSE) 2,433 6.7 -12.1°
Maximum altitude 16:40:09 87° 254° (WSW) 841 4.2 -12.8°
Drops below altitude 10° 16:45:37 10° 343° (NNW) 2,466 6.6 -13.6°
Sets 16:48:00 0° 344° (NNW) 3,414 7.3 -14.0°
